Regional Weather Roundup
Issued by NWS

Home | Current Version | Previous Version | Graphics & Text | Print | Product List | Glossary On
Versions: 1 2 3 4 5 6 7 8 9 10 11 12 13 14 15 16 17 18 19 20 21 22 23 24 25 26 27 28 29 30 31 32 33 34 35 36 37 38 39 40 41 42 43 44 45 46 47 48 49 50
000
ASUS45 KSLC 010310
RWRUT

UTAH REGIONAL WEATHER ROUNDUP
NATIONAL WEATHER SERVICE SALT LAKE CITY UT
900 PM MDT MON AUG 31 2015

UTZ001>011-023>025-010400-

NORTHERN UTAH

CITY           SKY/WX    TMP DP  RH WIND       PRES   REMARKS
BRIGHAM CITY   CLEAR     74  39  28 SE6       29.97R
HILL AFB       CLEAR     74  38  27 E9        30.00R
LOGAN          CLEAR     71  39  31 SE6       29.98R
OGDEN          CLEAR     75  43  31 SE8       29.97R
PROVO AIRPORT  PTCLDY    75  50  41 NW10      29.98R
SALT LAKE CITY PTCLDY    79  43  27 SE5       29.95R
VERNAL         MOCLDY    69  46  43 SW5       30.11R
WENDOVER       CLEAR     79  28  15 W7        29.94S
HEBER CITY     CLEAR     59  45  58 E6        30.07R
WEST JORDAN    CLEAR     73  41  31 SW8       30.00R

$$

UTZ012>022-026-027-010400-

SOUTHERN/CENTRAL UTAH

CITY           SKY/WX    TMP DP  RH WIND       PRES   REMARKS
BLANDING       MOCLDY    70  47  43 CALM      30.22S
BRYCE CANYON   MOCLDY    61  42  49 E7        30.28S
CEDAR CITY     CLEAR     69  40  34 S6        30.08R
DELTA          MOCLDY    79  31  17 E7        29.98R
HANKSVILLE     CLOUDY    77  50  38 SE3       30.03R
MILFORD        CLEAR     76  35  22 S8        30.01R
MOAB/CYNLANDS  CLEAR     77  47  34 S5        30.02R
PRICE          CLEAR     65  52  62 NE7       30.13R
ST GEORGE      MOCLDY    91  46  21 E14       29.88R
KANAB          PTCLDY    68  57  68 CALM      30.12R

$$

REGIONAL REPORTS     COLORADO/ARIZONA

CITY           SKY/WX    TMP DP  RH WIND       PRES   REMARKS
CRAIG, CO      CLOUDY    58  48  69 NE7       30.22R
GRAND JUNCTION MOCLDY    74  56  53 E3        30.06R
RIFLE          PTCLDY    70  46  42 N5        30.17R
MONTROSE       CLOUDY    68  55  63 SE6       30.17R
CORTEZ         CLEAR     68  49  50 NE6       30.16R
PAGE, AZ       CLEAR     79  53  40 S9        30.03R
GRAND CANYON   MOCLDY    64  51  62 SE7         N/A
KINGMAN        CLEAR     85  46  25 SW8       29.93R
FLAGSTAFF      MOCLDY    59  53  80 E5        30.29R

$$

REGIONAL REPORTS    NEVADA/IDAHO/WYOMING

CITY           SKY/WX    TMP DP  RH WIND       PRES   REMARKS
LAS VEGAS, NV  CLEAR     96  38  13 SW12      29.75R HX  91
ELY            CLEAR     67  27  22 S8        30.07R
ELKO           CLEAR     71  29  21 CALM      29.96R
POCATELLO, ID  CLEAR     63  33  32 S6        29.99R
BURLEY         CLEAR     62  41  46 CALM      29.96R
EVANSTON, WY   CLEAR     64  30  27 W8        30.19R
ROCK SPRINGS   CLEAR     64  39  39 SW9       30.16R
KEMMERER       CLEAR     61  27  27 W7        30.20S

$$


USA.gov is the U.S. government's official web portal to all federal, state and local government web resources and services.